Regional Weather Roundup
Issued by NWS Upton, NY

Current Version | Previous Version | Text Only | Print | Product List | Glossary On
Versions: 1 2 3 4 5 6 7 8 9 10 11 12 13 14 15 16 17 18 19 20 21 22 23 24 25 26 27 28 29 30 31 32 33 34 35 36 37 38 39 40 41 42 43 44 45 46 47 48 49 50
000 ASUS41 KOKX 250605 RWROKX REGIONAL WEATHER ROUNDUP NATIONAL WEATHER SERVICE NEW YORK NY 100 AM EST SUN JAN 25 2015 NOTE: "FAIR" INDICATES FEW OR NO CLOUDS BELOW 12,000 FEET WITH NO SIGNIFICANT WEATHER AND/OR OBSTRUCTIONS TO VISIBILITY. NYZ071-072-176-178-NJZ106-104-250700- NEW YORK CITY METRO AREA CITY SKY/WX TMP DP RH WIND PRES REMARKS CENTRAL PARK CLOUDY 37 23 56 W12G20 29.52R WCI 29 LAGUARDIA APRT MOCLDY 36 24 62 NW17G23 29.50R WCI 26 KENNEDY INTL MOCLDY 37 24 59 W13G20 29.52R WCI 29 NEWARK/LIBERTY MOCLDY 35 26 69 W8 29.52R WCI 29 BRNX BOT. GARD N/A N/A N/A N/A W18 29.52R TETERBORO CLOUDY 35 24 64 SW6 29.51R WCI 30 $$ NYZ177-179-078>081-250700- LONG ISLAND NEW YORK CITY SKY/WX TMP DP RH WIND PRES REMARKS FARMINGDALE CLOUDY 35 25 66 W8 29.49R WCI 29 ISLIP CLOUDY 34 26 72 W13 29.46R WCI 25 SHIRLEY CLOUDY 34 26 72 W9 29.48R WCI 27 WESTHAMPTON CLOUDY 33 28 81 W8 29.47R WCI 26 MONTAUK POINT N/A 37 26 64 W14G21 29.44R WCI 28 $$ NYZ052-065-067-250700- HUDSON VALLEY CITY SKY/WX TMP DP RH WIND PRES REMARKS WHITE PLAINS MOCLDY 33 24 69 W13 29.46R WCI 24 NEWBURGH NOT AVBL MONTGOMERY CLOUDY 34 25 69 W8 29.47R WCI 27 POUGHKEEPSIE CLOUDY 33 24 69 CALM 29.46R ALBANY MOCLDY 33 26 75 W13 29.42R WCI 24 $$ NJZ001-105-106-008-010-013-015-019>022-104-250700- NEW JERSEY CITY SKY/WX TMP DP RH WIND PRES REMARKS NEWARK/LIBERTY MOCLDY 35 26 69 W8 29.52R WCI 29 TETERBORO CLOUDY 35 24 64 SW6 29.51R WCI 30 CALDWELL CLOUDY 34 24 67 CALM 29.52R MORRISTOWN MOCLDY 37 25 60 W8 29.52R WCI 31 SOMERVILLE CLOUDY 36 24 62 W8 29.53R WCI 30 SUSSEX LGT RAIN 34 24 67 VRB7 29.49R WCI 28 ANDOVER N/A 34 24 67 CALM 29.50R TRENTON MOCLDY 34 24 67 W12 29.57R WCI 25 MILLVILLE CLOUDY 33 27 78 W7 29.63R WCI 27 ATLANTIC CITY CLEAR 33 26 75 W8 29.60R WCI 26 WRIGHTSTOWN CLOUDY 34 26 71 W12 29.56R WCI 26 TOMS RIVER CLOUDY 34 27 75 W6 29.56R WCI 29 BELMAR CLOUDY 34 23 64 W10 29.53 WCI 26 $$ PAZ047>061-062-071-250700- EASTERN PENNSYLVANIA CITY SKY/WX TMP DP RH WIND PRES REMARKS PHILADELPHIA CLOUDY 36 26 67 W12 29.62R WCI 28 ALLENTOWN MOCLDY 34 23 64 W13 29.56R WCI 25 SCRANTON CLOUDY 32 24 72 SW9 29.51R WCI 24 $$ CTZ002-004>006-009-010-012-RIZ004-006-007-MAZ004-011-015-250700- SOUTHERN NEW ENGLAND IN CT CITY SKY/WX TMP DP RH WIND PRES REMARKS BRADLEY INTL CLOUDY 33 24 69 W7 29.40R WCI 27 HARTFORD CLOUDY 32 24 72 VRB3 29.44R DANBURY PTCLDY 32 22 66 W12G20 29.45R WCI 23 WTRBRY/OXFORD CLEAR 28 18 64 W5 29.42R WCI 23 BRIDGEPORT CLOUDY 34 27 75 W7 29.46R WCI 28 MERIDEN CLEAR 27 22 81 S3 29.44R NEW HAVEN PTCLDY 33 25 72 CALM 29.45R CHESTER FAIR 32 27 80 W5 29.42R WCI 27 GROTON MOCLDY 32 25 75 W12G23 29.42R WCI 23 WILLIMANTIC CLOUDY 32 24 72 W9G16 29.41R WCI 24 IN RI CITY SKY/WX TMP DP RH WIND PRES REMARKS PROVIDENCE CLOUDY 32 26 78 W14 29.36R WCI 22 BLOCK ISLAND CLOUDY 34 25 69 W18 29.39R WCI 23 WESTERLY MOCLDY 32 26 78 W6 29.41R WCI 26 IN MA CITY SKY/WX TMP DP RH WIND PRES REMARKS BOSTON PTCLDY 32 25 75 W15G24 29.31R WCI 22 WORCESTER PTCLDY 27 23 85 W24 29.30R WCI 12 WESTFIELD MOCLDY 32 24 72 NW17G29 29.37S WCI 21 PROVINCETOWN CLEAR 34 27 75 W21G26 29.30R WCI 22 NANTUCKET CLEAR 34 29 82 W14 29.35R WCI 25 $$ ANZ330-335-338-340-345-350-353-355-250700- COASTAL MARINE OBSERVATIONS STATION/POSITION TIME SKY/WX TEMP WIND PRES VSBY WAVE AIR SEA DIR/SP/G HT/PER (UTC) (F) (DEG/KT/KT) (MB) (MI) (FT/S) NY HARB ENTRANCE 0600 37 42 260/ 16/ 17 999.1 4/11 4S FIRE IS 0600 38 N/A 6/13 20S FIRE ISLAND 0500 41 998.0 8/12 23SW MTP 0600 N/A 10/12 HUDSON CANYON NOT AVBL EXECUTION ROCKS 0600 36 35 260/ 12/ 19 N/A WESTERN LI SOUND 0500 36 280/ 14/ 19 N/A 1 CENTRAL LI SOUND 0500 35 37 290/ 16/ 19 N/A 2/ 4 EASTERN LI SOUND NOT AVBL ROBBINS REEF 0600 36 290/ 10/ 12 998.2 $$ >>>>>>>>>>>>>>>>>>>>>>>>>>>> KEY <<<<<<<<<<<<<<<<<<<<<<<<<<< > < > SKY/WX - SKY CONDITION/PRESENT WEATHER < > TMP - TEMPERATURE IN FAHRENHEIT < > DP - DEWPOINT IN FAHRENHEIT < > RH - RELATIVE HUMIDITY IN PERCENT < > WIND - DIRECTION AND SPEED IN MPH < > PRES - MEAN SEA LEVEL PRESSURE IN INCHES OF HG < > WCI - WIND CHILL INDEX < > VSB - VISIBILITY IN MILES < > HX - HEAT INDEX < > TC - TEMPERATURE IN CELSIUS < > VRB - VARIABLE WIND DIRECTION < > < >>>>>>>>>>>>>>>>>>>>>>>>>>>> KEY <<<<<<<<<<<<<<<<<<<<<<<<<<<

USA.gov is the U.S. government's official web portal to all federal, state and local government web resources and services.